KQ4KX Weather Reports


Display with metric or nautical units.
time (UTC)temp
F
wind
direction
speed
MPH
gust
MPH
rain 1hr
in
rain 24hr
in
rain mn
in
humidity
%
barometer
mb
20260509183906 94 240 3.0 9.0 0.00 0.00 0.00 52 1012.2
20260509183406 94 245 4.0 13.0 0.00 0.00 0.00 52 1012.3
20260509182906 94 239 4.0 13.0 0.00 0.00 0.00 52 1012.3
20260509182336 94 233 3.0 10.0 0.00 0.00 0.00 53 1012.4
20260509181836 94 264 4.0 10.0 0.00 0.00 0.00 52 1012.4
20260509181336 94 273 4.0 10.0 0.00 0.00 0.00 51 1012.5
20260509180836 93 258 4.0 12.0 0.00 0.00 0.00 53 1012.5
20260509180336 93 244 4.0 12.0 0.00 0.00 0.00 51 1012.6
20260509175805 93 237 5.0 12.0 0.00 0.00 0.00 53 1012.4
20260509175236 93 238 5.0 14.0 0.00 0.00 0.00 53 1012.6
20260509174706 93 253 4.0 14.0 0.00 0.00 0.00 52 1012.6
20260509174206 93 248 6.0 14.0 0.00 0.00 0.00 54 1012.7
20260509173707 93 249 6.0 14.0 0.00 0.00 0.00 54 1012.7
20260509173135 93 258 5.0 11.0 0.00 0.00 0.00 53 1012.8
20260509172636 93 266 4.0 11.0 0.00 0.00 0.00 54 1012.7
20260509172106 93 260 5.0 11.0 0.00 0.00 0.00 53 1012.8
20260509171605 92 256 6.0 11.0 0.00 0.00 0.00 53 1012.9
20260509171035 93 251 6.0 14.0 0.00 0.00 0.00 53 1012.9
20260509165936 93 242 5.0 11.0 0.00 0.00 0.00 52 1012.8
20260509165436 92 238 5.0 11.0 0.00 0.00 0.00 54 1012.9
20260509163406 92 237 5.0 13.0 0.00 0.00 0.00 53 1013.0
20260509162835 92 238 5.0 11.0 0.00 0.00 0.00 55 1013.1
20260509162336 92 236 5.0 17.0 0.00 0.00 0.00 55 1013.1
20260509161836 91 229 5.0 17.0 0.00 0.00 0.00 55 1013.1
20260509161336 90 227 5.0 13.0 0.00 0.00 0.00 57 1013.3
20260509160806 90 236 5.0 13.0 0.00 0.00 0.00 56 1013.3
20260509155236 90 215 4.0 12.0 0.00 0.00 0.00 57 1013.3
20260509154236 89 233 4.0 9.0 0.00 0.00 0.00 60 1013.6
20260509152706 88 217 3.0 9.0 0.00 0.00 0.00 63 1013.7
20260509151636 88 201 3.0 6.0 0.00 0.00 0.00 64 1013.9
20260509151106 87 197 3.0 7.0 0.00 0.00 0.00 64 1014.0
20260509150605 87 180 3.0 9.0 0.00 0.00 0.00 65 1014.0
20260509150105 87 176 3.0 9.0 0.00 0.00 0.00 65 1014.1
20260509145606 87 184 3.0 8.0 0.00 0.00 0.00 66 1014.0
20260509145035 86 188 3.0 9.0 0.00 0.00 0.00 67 1013.9
20260509144536 86 170 2.0 9.0 0.00 0.00 0.00 68 1013.9
20260509144110 86 103 2.0 6.0 0.00 0.00 0.00 74 1014.0
20260509144005 86 103 2.0 6.0 0.00 0.00 0.00 74 1014.0
20260509143436 85 99 3.0 6.0 0.00 0.00 0.00 78 1014.0
20260509142936 85 93 2.0 4.0 0.00 0.00 0.00 78 1014.0
20260509142406 84 108 2.0 4.0 0.00 0.00 0.00 80 1014.0
20260509140835 82 62 2.0 3.0 0.00 0.00 0.00 84 1014.1
20260509140518 81 66 2.0 4.0 0.00 0.00 0.00 84 1014.2
20260509140336 81 66 2.0 4.0 0.00 0.00 0.00 84 1014.2
20260509135836 81 83 2.0 4.0 0.00 0.00 0.00 85 1014.3
20260509134805 80 88 2.0 4.0 0.00 0.00 0.00 86 1014.3
20260509133236 80 38 2.0 4.0 0.00 0.00 0.00 87 1014.3
20260509132706 80 37 2.0 4.0 0.00 0.00 0.00 88 1014.2
20260509132206 80 61 2.0 3.0 0.00 0.00 0.00 89 1014.3
20260509131706 80 61 2.0 3.0 0.00 0.00 0.00 89 1014.3
20260509131135 80 56 2.0 3.0 0.00 0.00 0.00 88 1014.2
20260509130635 80 71 2.0 3.0 0.00 0.00 0.00 87 1014.2
20260509130135 80 72 1.0 3.0 0.00 0.00 0.00 86 1014.2
20260509125636 80 49 1.0 3.0 0.00 0.00 0.00 87 1014.0
20260509125459 80 54 1.0 3.0 0.00 0.00 0.00 86 1014.2
20260509125135 80 54 1.0 3.0 0.00 0.00 0.00 86 1014.2
20260509123605 78 355 1.0 2.0 0.00 0.00 0.00 90 1014.0
20260509122605 77 49 0.0 2.0 0.00 0.00 0.00 92 1014.0
20260509122035 76 90 1.0 2.0 0.00 0.00 0.00 93 1014.1
20260509121505 76 98 1.0 3.0 0.00 0.00 0.00 93 1013.9
20260509121005 76 105 1.0 3.0 0.00 0.00 0.00 94 1013.8
20260509120436 76 103 2.0 4.0 0.00 0.00 0.00 95 1013.6
20260509115335 76 101 1.0 4.0 0.00 0.00 0.00 96 1013.6
20260509114336 74 106 1.0 3.0 0.00 0.00 0.00 99 1013.3
20260509112805 74 162 1.0 4.0 0.00 0.00 0.00 99 1013.0
20260509111305 73 100 1.0 2.0 0.00 0.00 0.00 99 1013.1
20260509110555 72 104 2.0 4.0 0.00 0.00 0.00 99 1013.0
20260509110235 72 104 2.0 4.0 0.00 0.00 0.00 99 1013.0
20260509105447 72 106 2.0 4.0 0.00 0.00 0.00 99 1013.0
20260509105236 72 106 2.0 4.0 0.00 0.00 0.00 99 1013.0
20260509104235 72 107 0.0 3.0 0.00 0.00 0.00 99 1012.7
20260509103206 72 103 1.0 2.0 0.00 0.00 0.00 98 1012.7
20260509101106 72 316 0.0 1.0 0.00 0.00 0.00 98 1012.9
20260509100606 72 316 0.0 1.0 0.00 0.00 0.00 97 1012.9
20260509100249 72 316 0.0 1.0 0.00 0.00 0.00 97 1013.0
20260509100035 72 316 0.0 1.0 0.00 0.00 0.00 97 1013.0
20260509095505 72 316 0.0 1.0 0.00 0.00 0.00 97 1012.9
20260509094936 73 316 0.0 1.0 0.00 0.00 0.00 97 1012.8
20260509093906 73 316 0.0 1.0 0.00 0.00 0.00 97 1013.0
20260509093813 73 316 0.0 1.0 0.00 0.00 0.00 96 1012.8
20260509093405 73 316 0.0 1.0 0.00 0.00 0.00 96 1012.8
20260509092906 73 316 0.0 1.0 0.00 0.00 0.00 97 1012.8
20260509091235 74 316 0.0 1.0 0.00 0.00 0.00 96 1013.0
20260509090205 74 316 0.0 2.0 0.00 0.00 0.00 96 1013.0
20260509085205 74 316 1.0 2.0 0.00 0.00 0.00 96 1012.9
20260509084705 74 317 1.0 2.0 0.00 0.00 0.00 96 1012.9
20260509084136 74 319 1.0 2.0 0.00 0.00 0.00 96 1012.9
20260509083635 74 318 1.0 2.0 0.00 0.00 0.00 96 1013.4
20260509083136 74 322 1.0 2.0 0.00 0.00 0.00 96 1013.0
20260509082636 74 327 1.0 2.0 0.00 0.00 0.00 96 1013.1
20260509082105 74 329 1.0 2.0 0.00 0.00 0.00 96 1013.1
20260509081605 74 329 0.0 1.0 0.00 0.00 0.00 96 1013.2
20260509081035 74 329 0.0 1.0 0.00 0.00 0.00 95 1013.1
20260509075935 74 329 0.0 1.0 0.00 0.00 0.00 95 1013.3
20260509074906 74 0 0.0 0.0 0.00 0.00 0.00 95 1013.2
20260509074336 74 329 0.0 1.0 0.00 0.00 0.00 94 1013.4
20260509073336 74 339 0.0 1.0 0.00 0.00 0.00 94 1013.4
20260509072306 75 340 0.0 1.0 0.00 0.00 0.00 93 1013.4
20260509071736 75 340 0.0 1.0 0.00 0.00 0.00 93 1013.5
20260509071206 75 340 0.0 1.0 0.00 0.00 0.00 93 1013.5
20260509070636 75 341 0.0 1.0 0.00 0.00 0.00 93 1013.5
20260509070105 75 339 0.0 2.0 0.00 0.00 0.00 93 1013.6
20260509065536 75 335 1.0 2.0 0.00 0.00 0.00 93 1013.6
20260509064506 75 322 1.0 2.0 0.00 0.00 0.00 92 1013.7
20260509064005 75 322 1.0 2.0 0.00 0.00 0.00 92 1013.7
20260509063505 75 328 1.0 2.0 0.00 0.00 0.00 92 1013.7
20260509063005 75 329 1.0 2.0 0.00 0.00 0.00 92 1013.9
20260509062435 75 319 1.0 2.0 0.00 0.00 0.00 91 1013.9
20260509061935 76 316 1.0 2.0 0.00 0.00 0.00 91 1013.9
20260509061406 76 320 1.0 2.0 0.00 0.00 0.00 91 1014.0
20260509060835 76 321 1.0 2.0 0.00 0.00 0.00 91 1014.0
20260509060305 76 326 1.0 2.0 0.00 0.00 0.00 91 1014.0
20260509055235 76 330 1.0 2.0 0.00 0.00 0.00 90 1014.3
20260509054735 76 320 1.0 2.0 0.00 0.00 0.00 90 1014.5
20260509054205 76 318 1.0 2.0 0.00 0.00 0.00 90 1014.4
20260509053705 76 315 1.0 2.0 0.00 0.00 0.00 90 1014.6
20260509053135 76 309 1.0 2.0 0.00 0.00 0.00 90 1014.7
20260509052635 76 314 1.0 2.0 0.00 0.00 0.00 90 1014.7
20260509052106 76 319 1.0 3.0 0.00 0.00 0.00 89 1014.8
20260509051606 77 315 1.0 3.0 0.00 0.00 0.00 89 1014.8
20260509050605 77 295 1.0 3.0 0.00 0.00 0.00 88 1014.9
20260509050105 77 301 1.0 3.0 0.00 0.00 0.00 88 1014.9
20260509045605 77 312 1.0 2.0 0.00 0.00 0.00 87 1014.9
20260509044536 77 316 1.0 3.0 0.00 0.00 0.00 86 1014.9
20260509044005 77 318 2.0 3.0 0.00 0.00 0.00 86 1015.0
20260509043505 77 324 2.0 3.0 0.00 0.00 0.00 86 1015.0
20260509043005 77 325 1.0 3.0 0.00 0.00 0.00 85 1014.9
20260509042437 78 317 1.0 3.0 0.00 0.00 0.00 85 1014.9
20260509041905 78 319 1.0 3.0 0.00 0.00 0.00 84 1014.8
20260509041416 78 323 2.0 4.0 0.00 0.00 0.00 84 1014.9
20260509041336 78 323 2.0 4.0 0.00 0.00 0.00 84 1014.9
20260509040805 78 319 2.0 4.0 0.00 0.00 0.00 83 1015.1
20260509035205 79 332 2.0 4.0 0.00 0.00 0.00 82 1015.1
20260509034705 79 331 2.0 4.0 0.00 0.00 0.00 81 1015.0
20260509034135 79 333 2.0 4.0 0.00 0.00 0.00 80 1015.1
20260509033635 79 334 2.0 3.0 0.00 0.00 0.00 80 1015.1
20260509033105 79 338 2.0 4.0 0.00 0.00 0.00 79 1014.9
20260509032105 80 333 2.0 3.0 0.00 0.00 0.00 78 1014.8
20260509031535 80 342 2.0 4.0 0.00 0.00 0.00 78 1015.0
20260509031035 80 334 2.0 4.0 0.00 0.00 0.00 77 1014.9
20260509030536 80 335 2.0 5.0 0.00 0.00 0.00 77 1015.0
20260509030005 80 346 2.0 5.0 0.00 0.00 0.00 76 1014.9
20260509025505 80 351 3.0 5.0 0.00 0.00 0.00 76 1014.8
20260509025006 81 352 2.0 5.0 0.00 0.00 0.00 75 1014.8
20260509023935 81 355 2.0 5.0 0.00 0.00 0.00 73 1014.9
20260509023405 81 2 3.0 5.0 0.00 0.00 0.00 73 1014.8
20260509022905 82 357 3.0 5.0 0.00 0.00 0.00 72 1014.8
20260509022335 82 4 2.0 5.0 0.00 0.00 0.00 72 1014.7
20260509021305 82 359 2.0 4.0 0.00 0.00 0.00 71 1014.6
20260509020805 82 3 2.0 4.0 0.00 0.00 0.00 71 1014.5
20260509020305 82 9 2.0 4.0 0.00 0.00 0.00 70 1014.4
20260509015235 83 1 2.0 4.0 0.00 0.00 0.00 70 1014.2
20260509014705 83 2 2.0 4.0 0.00 0.00 0.00 70 1014.1
20260509014135 83 353 1.0 3.0 0.00 0.00 0.00 70 1014.0
20260509013635 83 344 2.0 4.0 0.00 0.00 0.00 70 1013.9
20260509013135 83 340 2.0 5.0 0.00 0.00 0.00 70 1013.8
20260509012035 84 325 2.0 4.0 0.00 0.00 0.00 70 1013.6
20260509011535 84 320 2.0 5.0 0.00 0.00 0.00 70 1013.6
20260509011035 84 321 2.0 5.0 0.00 0.00 0.00 70 1013.5
20260509010535 84 320 2.0 4.0 0.00 0.00 0.00 68 1013.5
20260509010006 85 313 3.0 5.0 0.00 0.00 0.00 67 1013.4
20260509005505 85 311 3.0 5.0 0.00 0.00 0.00 67 1013.3
20260509004935 85 313 3.0 7.0 0.00 0.00 0.00 66 1013.2
20260509004405 85 316 3.0 7.0 0.00 0.00 0.00 65 1013.1
20260509003836 86 316 2.0 4.0 0.00 0.00 0.00 65 1013.0
20260509002805 86 312 2.0 4.0 0.00 0.00 0.00 65 1012.8
20260509002236 87 308 2.0 4.0 0.00 0.00 0.00 64 1012.7
20260509001705 87 301 2.0 3.0 0.00 0.00 0.00 62 1012.6
20260509001205 88 292 2.0 6.0 0.00 0.00 0.00 61 1012.4
20260508235535 89 286 4.0 9.0 0.00 0.00 0.00 58 1012.0
20260508235005 89 283 3.0 9.0 0.00 0.00 0.00 58 1011.9
20260508234603 89 280 3.0 9.0 0.00 0.00 0.00 58 1011.8
20260508234505 89 280 3.0 9.0 0.00 0.00 0.00 58 1011.8
20260508232905 90 268 3.0 9.0 0.00 0.00 0.00 57 1011.7
20260508232335 90 261 3.0 7.0 0.00 0.00 0.00 57 1011.7
20260508231835 90 252 3.0 7.0 0.00 0.00 0.00 57 1011.6
20260508231532 90 246 3.0 7.0 0.00 0.00 0.00 56 1011.5
20260508231305 90 246 3.0 7.0 0.00 0.00 0.00 56 1011.5
20260508230805 90 241 3.0 7.0 0.00 0.00 0.00 56 1011.4
20260508230305 90 233 2.0 7.0 0.00 0.00 0.00 54 1011.4
20260508225235 91 240 2.0 6.0 0.00 0.00 0.00 54 1011.3
20260508224833 91 248 2.0 6.0 0.00 0.00 0.00 53 1011.4
20260508224735 91 248 2.0 6.0 0.00 0.00 0.00 53 1011.4
20260508224235 91 257 2.0 5.0 0.00 0.00 0.00 53 1011.2
20260508223735 91 254 2.0 6.0 0.00 0.00 0.00 52 1011.2
20260508223235 91 256 2.0 6.0 0.00 0.00 0.00 51 1011.2
20260508222735 92 261 2.0 5.0 0.00 0.00 0.00 51 1011.2
20260508222205 92 258 2.0 5.0 0.00 0.00 0.00 51 1011.1
20260508221705 92 247 1.0 5.0 0.00 0.00 0.00 50 1011.2
20260508221135 92 206 1.0 2.0 0.00 0.00 0.00 50 1011.1
20260508220635 93 163 1.0 2.0 0.00 0.00 0.00 52 1011.2
20260508220105 93 133 1.0 3.0 0.00 0.00 0.00 54 1011.3
20260508215535 93 93 2.0 6.0 0.00 0.00 0.00 53 1011.3
20260508215035 92 89 2.0 6.0 0.00 0.00 0.00 51 1011.2
20260508214535 93 108 1.0 6.0 0.00 0.00 0.00 52 1011.3
20260508214035 93 117 1.0 3.0 0.00 0.00 0.00 52 1011.2
20260508213505 93 107 2.0 4.0 0.00 0.00 0.00 50 1011.2
20260508213005 94 108 3.0 4.0 0.00 0.00 0.00 53 1011.2
20260508212505 94 105 3.0 4.0 0.00 0.00 0.00 52 1011.3
20260508211935 94 105 3.0 6.0 0.00 0.00 0.00 52 1011.3
20260508211405 94 108 3.0 7.0 0.00 0.00 0.00 51 1011.3
20260508210835 94 107 2.0 7.0 0.00 0.00 0.00 51 1011.4
20260508210335 94 112 1.0 3.0 0.00 0.00 0.00 52 1011.4
20260508205835 94 109 2.0 6.0 0.00 0.00 0.00 53 1011.4
20260508205306 94 106 3.0 6.0 0.00 0.00 0.00 52 1011.5
20260508204805 94 104 3.0 6.0 0.00 0.00 0.00 52 1011.6
20260508204235 93 97 2.0 6.0 0.00 0.00 0.00 54 1011.6
20260508203735 93 106 1.0 6.0 0.00 0.00 0.00 53 1011.7
20260508203205 93 121 1.0 3.0 0.00 0.00 0.00 53 1011.9
20260508202705 93 118 1.0 3.0 0.00 0.00 0.00 52 1012.0
20260508202135 94 121 1.0 3.0 0.00 0.00 0.00 52 1012.0
20260508201635 94 124 1.0 4.0 0.00 0.00 0.00 51 1012.0
20260508200535 95 97 3.0 6.0 0.00 0.00 0.00 52 1012.1
20260508200005 96 99 3.0 7.0 0.00 0.00 0.00 50 1012.2
20260508195622 96 115 3.0 7.0 0.00 0.00 0.00 54 1012.2
20260508195505 96 115 3.0 7.0 0.00 0.00 0.00 54 1012.2
20260508195005 96 112 3.0 7.0 0.00 0.00 0.00 51 1012.2
20260508194629 96 98 3.0 9.0 0.00 0.00 0.00 53 1012.3
20260508194505 96 98 3.0 9.0 0.00 0.00 0.00 53 1012.3
20260508193505 96 103 6.0 12.0 0.00 0.00 0.00 52 1012.6
20260508193005 96 102 3.0 12.0 0.00 0.00 0.00 53 1012.6
20260508192505 96 103 4.0 8.0 0.00 0.00 0.00 51 1012.7
20260508192005 97 105 4.0 8.0 0.00 0.00 0.00 52 1012.8
20260508191505 97 109 3.0 8.0 0.00 0.00 0.00 50 1012.9
20260508185405 94 55 2.0 4.0 0.00 0.00 0.00 54 1013.3
20260508184835 94 340 2.0 5.0 0.00 0.00 0.00 53 1013.4
20260508184335 94 213 2.0 5.0 0.00 0.00 0.00 53 1013.5